This is the latest recevied weather packets stored in our database for station/object LY3FF-10. If no packets are shown the sender has not sent any weather packets the latest 10 day(s).
| Time | Temp. | Humidity | Pressure | Rain* | Wind** | Luminosity | Snow |
|---|---|---|---|---|---|---|---|
| 1777467874 | 8.89° C | 35% | 1004.6 hPa | - | - | - | - |
| 1777467128 | 8.89° C | 37% | 1004.7 hPa | - | - | - | - |
| 1777466372 | 8.89° C | 37% | 1004.6 hPa | - | - | - | - |
| 1777465633 | 8.89° C | 38% | 1004.6 hPa | - | - | - | - |
| 1777464772 | 8.33° C | 37% | 1004.6 hPa | - | - | - | - |
| 1777463907 | 8.89° C | 38% | 1004.6 hPa | - | - | - | - |
| 1777463022 | 8.33° C | 38% | 1004.6 hPa | - | - | - | - |
| 1777462277 | 8.33° C | 38% | 1004.5 hPa | - | - | - | - |
| 1777461513 | 8.33° C | 37% | 1004.5 hPa | - | - | - | - |
| 1777460762 | 7.78° C | 38% | 1004.4 hPa | - | - | - | - |
| 1777459872 | 7.78° C | 39% | 1004.3 hPa | - | - | - | - |
| 1777459097 | 8.33° C | 37% | 1004.2 hPa | - | - | - | - |
| 1777458363 | 8.33° C | 38% | 1004.1 hPa | - | - | - | - |
| 1777457503 | 8.33° C | 39% | 1004.1 hPa | - | - | - | - |
| 1777456628 | 8.89° C | 38% | 1004 hPa | - | - | - | - |
| 1777455803 | 8.33° C | 41% | 1003.8 hPa | - | - | - | - |
| 1777454947 | 8.33° C | 42% | 1003.8 hPa | - | - | - | - |
| 1777454168 | 7.78° C | 44% | 1003.7 hPa | - | - | - | - |
| 1777453418 | 7.22° C | 45% | 1003.6 hPa | - | - | - | - |
| 1777452588 | 7.78° C | 44% | 1003.5 hPa | - | - | - | - |
| 1777451697 | 7.78° C | 45% | 1003.4 hPa | - | - | - | - |
| 1777450967 | 7.78° C | 45% | 1003.4 hPa | - | - | - | - |
| 1777450238 | 7.22° C | 45% | 1003.2 hPa | - | - | - | - |
| 1777449489 | 7.22° C | 48% | 1003.1 hPa | - | - | - | - |
| 1777448675 | 7.78° C | 48% | 1003.1 hPa | - | - | - | - |
* Rain since midnight (hover to see other rain measurements)
** Current wind speed in m/s (hover to see current wind gust speed)